Location: Aldenham
(51.6667°N, 0.3500°W)
Time: 08:52:11
(UTC+00:00)

SR - All Passes

Search period start: 17 February 2026 00:00
Search period end: 27 February 2026 00:00
Orbit: 574 x 847 km, 66.7° (Epoch: 15 February)

Date Brightness Start Highest point End Pass type
(mag) Time Alt. Az. Time Alt. Az. Time Alt. Az.
17 Feb - 03:49:35 10° SSE 03:52:12 16° ESE 03:54:52 10° ENE visible
17 Feb - 05:28:56 10° SW 05:33:11 79° NW 05:37:43 10° NE visible
17 Feb - 07:12:15 10° WNW 07:15:36 21° NNW 07:19:08 10° NNE daylight
17 Feb - 08:56:53 10° NNW 08:59:02 13° N 09:01:16 10° NNE daylight
17 Feb - 10:39:06 10° NNW 10:42:33 19° NNE 10:46:10 10° ENE daylight
17 Feb - 12:20:21 10° NNW 12:25:10 57° NE 12:30:22 10° SE daylight
17 Feb - 14:02:19 10° NW 14:06:40 30° WSW 14:11:18 10° S daylight
18 Feb - 04:34:13 10° SSW 04:38:19 50° ESE 04:42:39 10° NE visible
18 Feb - 06:16:18 10° W 06:20:11 32° NW 06:24:19 10° NNE visible
18 Feb - 08:00:51 10° NW 08:03:19 14° NNW 08:05:51 10° NNE daylight
18 Feb - 09:44:11 10° NNW 09:46:56 15° NNE 09:49:47 10° NE daylight
18 Feb - 11:25:32 10° NNW 11:29:58 34° NE 11:34:43 10° ESE daylight
18 Feb - 13:07:02 10° NW 13:11:55 58° WSW 13:17:09 10° SSE daylight
18 Feb - 14:51:40 10° W 14:52:43 11° WSW 14:53:48 10° WSW daylight
19 Feb - 03:40:16 10° SSE 03:43:41 24° ESE 03:47:13 10° ENE visible
19 Feb - 05:20:46 10° SW 05:24:58 55° NW 05:29:28 10° NNE visible
19 Feb - 07:04:36 10° WNW 07:07:39 18° NNW 07:10:51 10° NNE daylight
19 Feb - 08:48:57 10° NNW 08:51:13 13° N 08:53:32 10° NNE daylight
19 Feb - 10:30:45 10° NNW 10:34:35 23° NNE 10:38:40 10° E daylight
19 Feb - 12:12:02 10° NW 12:16:59 77° NE 12:22:19 10° SE daylight
19 Feb - 13:54:25 10° WNW 13:58:15 22° WSW 14:02:16 10° SSW daylight
20 Feb - 02:48:08 10° ESE 02:49:15 11° ESE 02:50:23 10° E visible
20 Feb - 04:25:44 10° SSW 04:29:58 75° SE 04:34:30 10° NE visible
20 Feb - 06:08:30 10° W 06:12:09 25° NNW 06:16:00 10° NNE visible
20 Feb - 07:53:11 10° NW 07:55:27 13° N 07:57:49 10° NNE daylight
20 Feb - 09:35:54 10° NNW 09:39:02 17° NNE 09:42:19 10° ENE daylight
20 Feb - 11:17:11 10° NNW 11:21:52 44° NE 11:26:55 10° ESE daylight
20 Feb - 12:58:53 10° NW 13:03:35 41° WSW 13:08:36 10° S daylight
21 Feb - 03:31:21 10° S 03:35:13 35° ESE 03:39:17 10° NE visible
21 Feb - 05:12:43 10° WSW 05:16:49 40° NW 05:21:11 10° NNE visible
21 Feb - 06:56:59 10° NW 06:59:45 16° NNW 07:02:37 10° NNE daylight
21 Feb - 08:40:51 10° NNW 08:43:21 14° N 08:45:57 10° NE daylight
21 Feb - 10:22:23 10° NNW 10:26:35 28° NE 10:31:03 10° E daylight
21 Feb - 12:03:46 10° NW 12:08:44 79° SW 12:14:06 10° SSE daylight
21 Feb - 13:46:50 10° WNW 13:49:46 15° WSW 13:52:49 10° SW daylight
22 Feb - 02:37:56 10° SSE 02:40:40 17° ESE 02:43:30 10° ENE visible
22 Feb - 04:17:25 10° SW 04:21:41 76° NW 04:26:16 10° NE visible
22 Feb - 06:00:46 10° WNW 06:04:09 21° NNW 06:07:42 10° NNE visible
22 Feb - 07:45:21 10° NNW 07:47:36 13° N 07:49:55 10° NNE daylight
22 Feb - 09:27:34 10° NNW 09:31:06 20° NNE 09:34:50 10° ENE daylight
22 Feb - 11:08:50 10° NNW 11:13:43 59° NE 11:18:59 10° SE daylight
22 Feb - 12:50:50 10° NW 12:55:12 30° WSW 12:59:50 10° S daylight
23 Feb - 03:22:40 10° SSW 03:26:48 52° ESE 03:31:12 10° NE visible
23 Feb - 05:04:48 10° W 05:08:43 31° NW 05:12:52 10° NNE visible
23 Feb - 06:49:21 10° NW 06:51:52 14° N 06:54:27 10° NNE daylight
23 Feb - 08:32:37 10° NNW 08:35:29 15° NNE 08:38:27 10° NE daylight
23 Feb - 10:14:00 10° NNW 10:18:31 35° NE 10:23:20 10° ESE daylight
23 Feb - 11:55:32 10° NW 12:00:27 57° WSW 12:05:43 10° SSE daylight
23 Feb - 13:40:25 10° W 13:41:13 10° WSW 13:42:02 10° WSW daylight
24 Feb - 02:28:40 10° SSE 02:32:09 25° ESE 02:35:47 10° ENE visible
24 Feb - 04:09:15 10° WSW 04:13:28 54° NW 04:18:00 10° NNE visible
24 Feb - 05:53:07 10° WNW 05:56:11 18° NNW 05:59:25 10° NNE visible
24 Feb - 07:37:23 10° NNW 07:39:45 13° N 07:42:11 10° NE daylight
24 Feb - 09:19:12 10° NNW 09:23:08 24° NNE 09:27:18 10° E daylight
24 Feb - 11:00:31 10° NW 11:05:31 80° NE 11:10:54 10° SE daylight
24 Feb - 12:42:57 10° WNW 12:46:46 21° WSW 12:50:46 10° SSW daylight
25 Feb - 01:36:16 10° SE 01:37:43 11° ESE 01:39:10 10° E visible
25 Feb - 03:14:11 10° SSW 03:18:28 78° SE 03:23:02 10° NE visible
25 Feb - 04:56:59 10° W 05:00:39 25° NNW 05:04:32 10° NNE visible
25 Feb - 06:41:39 10° NW 06:43:59 14° N 06:46:25 10° NNE daylight
25 Feb - 08:24:20 10° NNW 08:27:34 18° NNE 08:30:58 10° ENE daylight
25 Feb - 10:05:38 10° NNW 10:10:24 46° NE 10:15:31 10° ESE daylight
25 Feb - 11:47:22 10° NW 11:52:06 40° WSW 11:57:08 10° S daylight
26 Feb - 02:19:45 10° S 02:23:40 36° ESE 02:27:50 10° NE visible
26 Feb - 04:01:12 10° WSW 04:05:18 40° NW 04:09:42 10° NNE visible
26 Feb - 05:45:29 10° NW 05:48:16 16° NNW 05:51:11 10° NNE visible
26 Feb - 07:29:16 10° NNW 07:31:53 14° N 07:34:36 10° NE daylight
26 Feb - 09:10:49 10° NNW 09:15:07 29° NE 09:19:40 10° E daylight
26 Feb - 10:52:14 10° NW 10:57:15 76° SW 11:02:39 10° SSE daylight
26 Feb - 12:35:22 10° WNW 12:38:16 15° WSW 12:41:14 10° SW daylight
